owner,sensor,date,latitude,longitude,vertical_datum,wind_speed,wind_to_direction,wind_speed_of_gust,qcFlag 
COMPS,ioos:station:USF.COMPS:C10:1,2015-01-01T00:05:00Z,27.1690,-82.9260,3.0,7.332,47.894,8.49,'1111122,1111122,1111122' 
COMPS,ioos:station:USF.COMPS:C10:1,2015-01-01T00:35:00Z,27.1690,-82.9260,3.0,8.028,55.23,9.577,'1111122,1111122,1111122' 
COMPS,ioos:station:USF.COMPS:C10:1,2015-01-01T01:05:00Z,27.1690,-82.9260,3.0,7.943,63.486,9.517,'1111122,1111122,1111122' 
COMPS,ioos:station:USF.COMPS:C10:1,2015-01-01T01:35:00Z,27.1690,-82.9260,3.0,8.055,68.274,9.967,'1111122,1111122,1111122' 
COMPS,ioos:station:USF.COMPS:C10:1,2015-01-01T02:05:00Z,27.1690,-82.9260,3.0,7.878,71.573,9.69,'1111122,1111122,1111122' 
COMPS,ioos:station:USF.COMPS:C10:1,2015-01-01T02:35:00Z,27.1690,-82.9260,3.0,8.038,81.075,10.057,'1111122,1111122,1111122' 
COMPS,ioos:station:USF.COMPS:C10:1,2015-01-01T03:05:00Z,27.1690,-82.9260,3.0,7.475,80.521,8.987,'1111122,1111122,1111122' 
COMPS,ioos:station:USF.COMPS:C10:1,2015-01-01T03:35:00Z,27.1690,-82.9260,3.0,7.492,75.201,9.133,'1111122,1111122,1111122' 
COMPS,ioos:station:USF.COMPS:C10:1,2015-01-01T04:05:00Z,27.1690,-82.9260,3.0,6.57,78.408,8.393,'1111122,1111122,1111122' 
COMPS,ioos:station:USF.COMPS:C10:1,2015-01-01T04:35:00Z,27.1690,-82.9260,3.0,6.489,84.821,7.78,'1111122,1111122,1111122' 
COMPS,ioos:station:USF.COMPS:C10:1,2015-01-01T05:05:00Z,27.1690,-82.9260,3.0,5.818,70.52,6.9,'1111122,1111122,1111122' 
COMPS,ioos:station:USF.COMPS:C10:1,2015-01-01T05:35:00Z,27.1690,-82.9260,3.0,5.826,54.702,7.25,'1111122,1111122,1111122' 
COMPS,ioos:station:USF.COMPS:C10:1,2015-01-01T06:05:00Z,27.1690,-82.9260,3.0,5.648,52.225,7.253,'1111122,1111122,1111122' 
COMPS,ioos:station:USF.COMPS:C10:1,2015-01-01T06:35:00Z,27.1690,-82.9260,3.0,4.764,59.19,5.877,'1111122,1111122,1111122' 
COMPS,ioos:station:USF.COMPS:C10:1,2015-01-01T07:05:00Z,27.1690,-82.9260,3.0,5.096,45.971,6.63,'1111122,1111122,1111122' 
COMPS,ioos:station:USF.COMPS:C10:1,2015-01-01T07:35:00Z,27.1690,-82.9260,3.0,4.798,32.321,6.353,'1111122,1111122,1111122' 
COMPS,ioos:station:USF.COMPS:C10:1,2015-01-01T08:05:00Z,27.1690,-82.9260,3.0,5.106,41.126,6.43,'1111122,1111122,1111122' 
COMPS,ioos:station:USF.COMPS:C10:1,2015-01-01T08:35:00Z,27.1690,-82.9260,3.0,5.322,44.966,6.273,'1111122,1111122,1111122' 
COMPS,ioos:station:USF.COMPS:C10:1,2015-01-01T10:05:00Z,27.1690,-82.9260,3.0,6.184,40.894,7.237,'1111122,1111122,1111122' 
COMPS,ioos:station:USF.COMPS:C10:1,2015-01-01T10:35:00Z,27.1690,-82.9260,3.0,6.508,38.807,7.883,'1111122,1111122,1111122' 
COMPS,ioos:station:USF.COMPS:C10:1,2015-01-01T11:05:00Z,27.1690,-82.9260,3.0,6.779,32.79,8.26,'1111122,1111122,1111122' 
COMPS,ioos:station:USF.COMPS:C10:1,2015-01-01T11:35:00Z,27.1690,-82.9260,3.0,6.447,31.68,7.52,'1111122,1111122,1111122' 
COMPS,ioos:station:USF.COMPS:C10:1,2015-01-01T12:05:00Z,27.1690,-82.9260,3.0,6.531,41.803,7.46,'1111122,1111122,1111122' 
COMPS,ioos:station:USF.COMPS:C10:1,2015-01-01T12:35:00Z,27.1690,-82.9260,3.0,6.25,49.706,7.403,'1111122,1111122,1111122' 
COMPS,ioos:station:USF.COMPS:C10:1,2015-01-01T13:05:00Z,27.1690,-82.9260,3.0,5.833,40.273,7.08,'1111122,1111122,1111122' 
COMPS,ioos:station:USF.COMPS:C10:1,2015-01-01T13:35:00Z,27.1690,-82.9260,3.0,4.648,30.863,5.9,'1111122,1111122,1111122' 
COMPS,ioos:station:USF.COMPS:C10:1,2015-01-01T14:05:00Z,27.1690,-82.9260,3.0,5.396,26.634,6.603,'1111122,1111122,1111122' 
COMPS,ioos:station:USF.COMPS:C10:1,2015-01-01T14:35:00Z,27.1690,-82.9260,3.0,5.794,25.841,7.003,'1111122,1111122,1111122' 
COMPS,ioos:station:USF.COMPS:C10:1,2015-01-01T15:05:00Z,27.1690,-82.9260,3.0,5.407,27.912,6.593,'1111122,1111122,1111122' 
COMPS,ioos:station:USF.COMPS:C10:1,2015-01-01T15:35:00Z,27.1690,-82.9260,3.0,5.254,37.548,6.283,'1111122,1111122,1111122' 
COMPS,ioos:station:USF.COMPS:C10:1,2015-01-01T16:05:00Z,27.1690,-82.9260,3.0,5.594,18.029,6.643,'1111122,1111122,1111122' 
COMPS,ioos:station:USF.COMPS:C10:1,2015-01-01T16:35:00Z,27.1690,-82.9260,3.0,6.172,23.372,7.37,'1111122,1111122,1111122' 
COMPS,ioos:station:USF.COMPS:C10:1,2015-01-01T17:05:00Z,27.1690,-82.9260,3.0,6.896,25.937,8.057,'1111122,1111122,1111122' 
COMPS,ioos:station:USF.COMPS:C10:1,2015-01-01T17:35:00Z,27.1690,-82.9260,3.0,6.259,28.437,7.407,'1111122,1111122,1111122' 
COMPS,ioos:station:USF.COMPS:C10:1,2015-01-01T18:05:00Z,27.1690,-82.9260,3.0,5.469,28.763,6.827,'1111122,1111122,1111122' 
COMPS,ioos:station:USF.COMPS:C10:1,2015-01-01T18:35:00Z,27.1690,-82.9260,3.0,5.299,26.362,6.32,'1111122,1111122,1111122' 
COMPS,ioos:station:USF.COMPS:C10:1,2015-01-01T19:05:00Z,27.1690,-82.9260,3.0,5.018,24.972,6.04,'1111122,1111122,1111122' 
COMPS,ioos:station:USF.COMPS:C10:1,2015-01-01T19:35:00Z,27.1690,-82.9260,3.0,4.355,22.522,5.263,'1111122,1111122,1111122' 
COMPS,ioos:station:USF.COMPS:C10:1,2015-01-01T21:05:00Z,27.1690,-82.9260,3.0,3.973,36.387,4.95,'1111122,1111122,1111122' 
COMPS,ioos:station:USF.COMPS:C10:1,2015-01-01T21:35:00Z,27.1690,-82.9260,3.0,4.891,20.589,5.513,'1111122,1111122,1111122' 
COMPS,ioos:station:USF.COMPS:C10:1,2015-01-01T22:05:00Z,27.1690,-82.9260,3.0,5.316,16.957,6.19,'1111122,1111122,1111122' 
COMPS,ioos:station:USF.COMPS:C10:1,2015-01-01T22:35:00Z,27.1690,-82.9260,3.0,4.38,16.406,5.207,'1111122,1111122,1111122' 
COMPS,ioos:station:USF.COMPS:C10:1,2015-01-01T23:05:00Z,27.1690,-82.9260,3.0,3.967,18.487,4.893,'1111122,1111122,1111122' 
COMPS,ioos:station:USF.COMPS:C10:1,2015-01-01T23:35:00Z,27.1690,-82.9260,3.0,3.718,17.939,4.603,'1111122,1111122,1111122' 
COMPS,ioos:station:USF.COMPS:C10:1,2015-01-02T00:05:00Z,27.1690,-82.9260,3.0,3.342,12.3,4.043,'1111122,1111122,1111122' 
COMPS,ioos:station:USF.COMPS:C10:1,2015-01-02T00:35:00Z,27.1690,-82.9260,3.0,3.677,11.979,4.527,'1111122,1111122,1111122' 
COMPS,ioos:station:USF.COMPS:C10:1,2015-01-02T01:05:00Z,27.1690,-82.9260,3.0,4.102,2.917,4.903,'1111122,1111122,1111122' 
COMPS,ioos:station:USF.COMPS:C10:1,2015-01-02T01:35:00Z,27.1690,-82.9260,3.0,4.101,9.69,4.79,'1111122,1111122,1111122' 
COMPS,ioos:station:USF.COMPS:C10:1,2015-01-02T03:05:00Z,27.1690,-82.9260,3.0,3.991,2.886,4.993,'1111122,1111122,1111122' 
COMPS,ioos:station:USF.COMPS:C10:1,2015-01-02T03:35:00Z,27.1690,-82.9260,3.0,4.323,7.64,5.12,'1111122,1111122,1111122' 
COMPS,ioos:station:USF.COMPS:C10:1,2015-01-02T05:05:00Z,27.1690,-82.9260,3.0,3.69,27.015,4.71,'1111122,1111122,1111122' 
COMPS,ioos:station:USF.COMPS:C10:1,2015-01-02T05:35:00Z,27.1690,-82.9260,3.0,3.896,45.305,4.59,'1111122,1111122,1111122' 
COMPS,ioos:station:USF.COMPS:C10:1,2015-01-02T06:05:00Z,27.1690,-82.9260,3.0,3.821,60.643,4.583,'1111122,1111122,1111122' 
COMPS,ioos:station:USF.COMPS:C10:1,2015-01-02T06:35:00Z,27.1690,-82.9260,3.0,3.946,71.681,4.65,'1111122,1111122,1111122' 
COMPS,ioos:station:USF.COMPS:C10:1,2015-01-02T07:05:00Z,27.1690,-82.9260,3.0,4.44,73.273,5.657,'1111122,1111122,1111122' 
COMPS,ioos:station:USF.COMPS:C10:1,2015-01-02T07:35:00Z,27.1690,-82.9260,3.0,3.717,66.756,4.707,'1111122,1111122,1111122' 
COMPS,ioos:station:USF.COMPS:C10:1,2015-01-02T08:05:00Z,27.1690,-82.9260,3.0,4.216,55.98,5.293,'1111122,1111122,1111122' 
COMPS,ioos:station:USF.COMPS:C10:1,2015-01-02T08:35:00Z,27.1690,-82.9260,3.0,4.155,64.182,5.143,'1111122,1111122,1111122' 
COMPS,ioos:station:USF.COMPS:C10:1,2015-01-02T09:05:00Z,27.1690,-82.9260,3.0,4.695,74.036,5.683,'1111122,1111122,1111122' 
COMPS,ioos:station:USF.COMPS:C10:1,2015-01-02T09:35:00Z,27.1690,-82.9260,3.0,4.887,65.797,5.92,'1111122,1111122,1111122' 
COMPS,ioos:station:USF.COMPS:C10:1,2015-01-02T10:05:00Z,27.1690,-82.9260,3.0,4.565,75.29,5.503,'1111122,1111122,1111122' 
COMPS,ioos:station:USF.COMPS:C10:1,2015-01-02T10:35:00Z,27.1690,-82.9260,3.0,4.949,78.661,6.097,'1111122,1111122,1111122' 
COMPS,ioos:station:USF.COMPS:C10:1,2015-01-02T11:05:00Z,27.1690,-82.9260,3.0,5.719,70.34,7.003,'1111122,1111122,1111122' 
COMPS,ioos:station:USF.COMPS:C10:1,2015-01-02T11:35:00Z,27.1690,-82.9260,3.0,5.272,76.316,6.413,'1111122,1111122,1111122' 
COMPS,ioos:station:USF.COMPS:C10:1,2015-01-02T12:05:00Z,27.1690,-82.9260,3.0,6.243,86.867,7.35,'1111122,1111122,1111122' 
COMPS,ioos:station:USF.COMPS:C10:1,2015-01-02T12:35:00Z,27.1690,-82.9260,3.0,5.104,103.678,6.763,'1111122,1111122,1111122' 
COMPS,ioos:station:USF.COMPS:C10:1,2015-01-02T13:05:00Z,27.1690,-82.9260,3.0,4.641,104.143,5.767,'1111122,1111122,1111122' 
COMPS,ioos:station:USF.COMPS:C10:1,2015-01-02T13:35:00Z,27.1690,-82.9260,3.0,4.951,96.838,5.94,'1111122,1111122,1111122' 
COMPS,ioos:station:USF.COMPS:C10:1,2015-01-02T14:05:00Z,27.1690,-82.9260,3.0,4.855,98.349,5.77,'1111122,1111122,1111122' 
COMPS,ioos:station:USF.COMPS:C10:1,2015-01-02T14:35:00Z,27.1690,-82.9260,3.0,5.307,98.963,6.55,'1111122,1111122,1111122' 
COMPS,ioos:station:USF.COMPS:C10:1,2015-01-02T15:05:00Z,27.1690,-82.9260,3.0,4.648,87.122,5.417,'1111122,1111122,1111122' 
COMPS,ioos:station:USF.COMPS:C10:1,2015-01-02T15:35:00Z,27.1690,-82.9260,3.0,5.024,96.878,6.437,'1111122,1111122,1111122' 
COMPS,ioos:station:USF.COMPS:C10:1,2015-01-02T16:05:00Z,27.1690,-82.9260,3.0,4.663,93.15,5.947,'1111122,1111122,1111122' 
COMPS,ioos:station:USF.COMPS:C10:1,2015-01-02T16:35:00Z,27.1690,-82.9260,3.0,4.465,89.93,5.477,'1111122,1111122,1111122' 
COMPS,ioos:station:USF.COMPS:C10:1,2015-01-02T17:05:00Z,27.1690,-82.9260,3.0,3.95,95.207,4.847,'1111122,1111122,1111122' 
COMPS,ioos:station:USF.COMPS:C10:1,2015-01-02T17:35:00Z,27.1690,-82.9260,3.0,4.287,98.023,5.437,'1111122,1111122,1111122' 
COMPS,ioos:station:USF.COMPS:C10:1,2015-01-02T18:05:00Z,27.1690,-82.9260,3.0,4.129,101.663,5.53,'1111122,1111122,1111122' 
COMPS,ioos:station:USF.COMPS:C10:1,2015-01-02T18:35:00Z,27.1690,-82.9260,3.0,3.364,86.609,4.17,'1111122,1111122,1111122' 
COMPS,ioos:station:USF.COMPS:C10:1,2015-01-02T19:05:00Z,27.1690,-82.9260,3.0,2.296,72.864,3.287,'1111122,1111122,1111122' 
COMPS,ioos:station:USF.COMPS:C10:1,2015-01-02T19:35:00Z,27.1690,-82.9260,3.0,1.412,47.502,1.853,'1111122,1111122,1111122' 
COMPS,ioos:station:USF.COMPS:C10:1,2015-01-02T20:05:00Z,27.1690,-82.9260,3.0,1.997,61.809,2.44,'1111122,1111122,1111122' 
COMPS,ioos:station:USF.COMPS:C10:1,2015-01-02T20:35:00Z,27.1690,-82.9260,3.0,1.719,51.31,2.21,'1111122,1111122,1111122' 
COMPS,ioos:station:USF.COMPS:C10:1,2015-01-02T21:05:00Z,27.1690,-82.9260,3.0,1.805,33.056,2.207,'1111122,1111122,1111122' 
COMPS,ioos:station:USF.COMPS:C10:1,2015-01-02T21:35:00Z,27.1690,-82.9260,3.0,2.336,29.331,2.913,'1111122,1111122,1111122' 
COMPS,ioos:station:USF.COMPS:C10:1,2015-01-02T22:05:00Z,27.1690,-82.9260,3.0,2.095,26.926,2.587,'1111122,1111122,1111122' 
COMPS,ioos:station:USF.COMPS:C10:1,2015-01-02T22:35:00Z,27.1690,-82.9260,3.0,2.217,35.128,2.77,'1111122,1111122,1111122' 
COMPS,ioos:station:USF.COMPS:C10:1,2015-01-02T23:05:00Z,27.1690,-82.9260,3.0,2.73,40.63,3.33,'1111122,1111122,1111122' 
COMPS,ioos:station:USF.COMPS:C10:1,2015-01-02T23:35:00Z,27.1690,-82.9260,3.0,2.983,46.508,3.583,'1111122,1111122,1111122' 
COMPS,ioos:station:USF.COMPS:C10:1,2015-01-03T00:05:00Z,27.1690,-82.9260,3.0,2.648,58.741,4.013,'1111122,1111122,1111122' 
COMPS,ioos:station:USF.COMPS:C10:1,2015-01-03T00:35:00Z,27.1690,-82.9260,3.0,2.623,54.972,3.083,'1111122,1111122,1111122' 
COMPS,ioos:station:USF.COMPS:C10:1,2015-01-03T01:05:00Z,27.1690,-82.9260,3.0,2.793,66.293,3.383,'1111122,1111122,1111122' 
COMPS,ioos:station:USF.COMPS:C10:1,2015-01-03T01:35:00Z,27.1690,-82.9260,3.0,3.894,68.324,4.627,'1111122,1111122,1111122' 
COMPS,ioos:station:USF.COMPS:C10:1,2015-01-03T02:05:00Z,27.1690,-82.9260,3.0,4.601,67.476,5.617,'1111122,1111122,1111122' 
COMPS,ioos:station:USF.COMPS:C10:1,2015-01-03T02:35:00Z,27.1690,-82.9260,3.0,2.92,73.262,4.177,'1111122,1111122,1111122' 
COMPS,ioos:station:USF.COMPS:C10:1,2015-01-03T03:05:00Z,27.1690,-82.9260,3.0,3.241,46.223,3.85,'1111122,1111122,1111122' 
COMPS,ioos:station:USF.COMPS:C10:1,2015-01-03T03:35:00Z,27.1690,-82.9260,3.0,3.38,50.252,3.977,'1111122,1111122,1111122' 
COMPS,ioos:station:USF.COMPS:C10:1,2015-01-03T05:05:00Z,27.1690,-82.9260,3.0,2.839,70.161,3.163,'1111122,1111122,1111122' 
COMPS,ioos:station:USF.COMPS:C10:1,2015-01-03T05:35:00Z,27.1690,-82.9260,3.0,3.89,93.471,4.877,'1111122,1111122,1111122' 
COMPS,ioos:station:USF.COMPS:C10:1,2015-01-03T06:05:00Z,27.1690,-82.9260,3.0,5.131,105.892,5.99,'1111122,1111122,1111122' 
COMPS,ioos:station:USF.COMPS:C10:1,2015-01-03T06:35:00Z,27.1690,-82.9260,3.0,4.782,110.66,5.823,'1111122,1111122,1111122' 
COMPS,ioos:station:USF.COMPS:C10:1,2015-01-03T07:05:00Z,27.1690,-82.9260,3.0,4.524,107.193,5.593,'1111122,1111122,1111122' 
COMPS,ioos:station:USF.COMPS:C10:1,2015-01-03T07:35:00Z,27.1690,-82.9260,3.0,3.768,108.384,4.507,'1111122,1111122,1111122' 
COMPS,ioos:station:USF.COMPS:C10:1,2015-01-03T08:05:00Z,27.1690,-82.9260,3.0,3.252,107.431,3.953,'1111122,1111122,1111122' 
COMPS,ioos:station:USF.COMPS:C10:1,2015-01-03T08:35:00Z,27.1690,-82.9260,3.0,2.873,116.254,3.5,'1111122,1111122,1111122' 
COMPS,ioos:station:USF.COMPS:C10:1,2015-01-03T09:05:00Z,27.1690,-82.9260,3.0,3.507,116.104,4.03,'1111122,1111122,1111122' 
COMPS,ioos:station:USF.COMPS:C10:1,2015-01-03T09:35:00Z,27.1690,-82.9260,3.0,4.153,117.503,5.557,'1111122,1111122,1111122' 
COMPS,ioos:station:USF.COMPS:C10:1,2015-01-03T10:05:00Z,27.1690,-82.9260,3.0,4.652,116.123,5.723,'1111122,1111122,1111122' 
COMPS,ioos:station:USF.COMPS:C10:1,2015-01-03T10:35:00Z,27.1690,-82.9260,3.0,5.358,112.107,6.993,'1111122,1111122,1111122' 
COMPS,ioos:station:USF.COMPS:C10:1,2015-01-03T11:05:00Z,27.1690,-82.9260,3.0,5.36,110.24,6.407,'1111122,1111122,1111122' 
COMPS,ioos:station:USF.COMPS:C10:1,2015-01-03T11:35:00Z,27.1690,-82.9260,3.0,5.832,113.449,6.767,'1111122,1111122,1111122' 
COMPS,ioos:station:USF.COMPS:C10:1,2015-01-03T12:05:00Z,27.1690,-82.9260,3.0,5.789,114.375,7.047,'1111122,1111122,1111122' 
COMPS,ioos:station:USF.COMPS:C10:1,2015-01-03T12:35:00Z,27.1690,-82.9260,3.0,5.728,114.763,6.853,'1111122,1111122,1111122' 
COMPS,ioos:station:USF.COMPS:C10:1,2015-01-03T13:05:00Z,27.1690,-82.9260,3.0,5.671,118.99,7.11,'1111122,1111122,1111122' 
COMPS,ioos:station:USF.COMPS:C10:1,2015-01-03T13:35:00Z,27.1690,-82.9260,3.0,5.551,121.21,6.71,'1111122,1111122,1111122' 
COMPS,ioos:station:USF.COMPS:C10:1,2015-01-03T14:05:00Z,27.1690,-82.9260,3.0,5.21,120.408,6.52,'1111122,1111122,1111122' 
COMPS,ioos:station:USF.COMPS:C10:1,2015-01-03T14:35:00Z,27.1690,-82.9260,3.0,4.376,122.267,5.213,'1111122,1111122,1111122' 
COMPS,ioos:station:USF.COMPS:C10:1,2015-01-03T15:05:00Z,27.1690,-82.9260,3.0,5.215,126.997,6.143,'1111122,1111122,1111122' 
COMPS,ioos:station:USF.COMPS:C10:1,2015-01-03T15:35:00Z,27.1690,-82.9260,3.0,5.039,128.179,6.203,'1111122,1111122,1111122' 
COMPS,ioos:station:USF.COMPS:C10:1,2015-01-03T16:05:00Z,27.1690,-82.9260,3.0,4.441,134.071,5.447,'1111122,1111122,1111122' 
COMPS,ioos:station:USF.COMPS:C10:1,2015-01-03T16:35:00Z,27.1690,-82.9260,3.0,4.254,142.933,5.213,'1111122,1111122,1111122' 
COMPS,ioos:station:USF.COMPS:C10:1,2015-01-03T17:05:00Z,27.1690,-82.9260,3.0,4.311,147.192,5.173,'1111122,1111122,1111122' 
COMPS,ioos:station:USF.COMPS:C10:1,2015-01-03T17:35:00Z,27.1690,-82.9260,3.0,3.971,146.802,4.813,'1111122,1111122,1111122' 
COMPS,ioos:station:USF.COMPS:C10:1,2015-01-03T18:05:00Z,27.1690,-82.9260,3.0,3.49,140.246,4.223,'1111122,1111122,1111122' 
COMPS,ioos:station:USF.COMPS:C10:1,2015-01-03T18:35:00Z,27.1690,-82.9260,3.0,3.84,142.231,4.547,'1111122,1111122,1111122' 
COMPS,ioos:station:USF.COMPS:C10:1,2015-01-03T19:05:00Z,27.1690,-82.9260,3.0,4.542,142.252,5.367,'1111122,1111122,1111122' 
COMPS,ioos:station:USF.COMPS:C10:1,2015-01-03T19:35:00Z,27.1690,-82.9260,3.0,4.122,146.416,4.907,'1111122,1111122,1111122' 
COMPS,ioos:station:USF.COMPS:C10:1,2015-01-03T20:05:00Z,27.1690,-82.9260,3.0,4.223,143.915,4.987,'1111122,1111122,1111122' 
COMPS,ioos:station:USF.COMPS:C10:1,2015-01-03T20:35:00Z,27.1690,-82.9260,3.0,3.806,147.258,4.447,'1111122,1111122,1111122' 
COMPS,ioos:station:USF.COMPS:C10:1,2015-01-03T21:05:00Z,27.1690,-82.9260,3.0,3.763,152.048,4.413,'1111122,1111122,1111122' 
COMPS,ioos:station:USF.COMPS:C10:1,2015-01-03T21:35:00Z,27.1690,-82.9260,3.0,3.969,153.473,4.647,'1111122,1111122,1111122' 
COMPS,ioos:station:USF.COMPS:C10:1,2015-01-03T22:05:00Z,27.1690,-82.9260,3.0,4.658,152.686,5.697,'1111122,1111122,1111122' 
COMPS,ioos:station:USF.COMPS:C10:1,2015-01-03T22:35:00Z,27.1690,-82.9260,3.0,4.871,154.846,5.657,'1111122,1111122,1111122' 
COMPS,ioos:station:USF.COMPS:C10:1,2015-01-03T23:05:00Z,27.1690,-82.9260,3.0,5.54,155.113,6.47,'1111122,1111122,1111122' 
COMPS,ioos:station:USF.COMPS:C10:1,2015-01-03T23:35:00Z,27.1690,-82.9260,3.0,5.719,158.918,6.833,'1111122,1111122,1111122' 
COMPS,ioos:station:USF.COMPS:C10:1,2015-01-04T00:05:00Z,27.1690,-82.9260,3.0,6.082,160.407,7.36,'1111122,1111122,1111122' 
COMPS,ioos:station:USF.COMPS:C10:1,2015-01-04T00:35:00Z,27.1690,-82.9260,3.0,5.705,165.376,6.95,'1111122,1111122,1111122' 
COMPS,ioos:station:USF.COMPS:C10:1,2015-01-04T01:05:00Z,27.1690,-82.9260,3.0,4.26,179.86,5.127,'1111122,1111122,1111122' 
COMPS,ioos:station:USF.COMPS:C10:1,2015-01-04T01:35:00Z,27.1690,-82.9260,3.0,5.102,165.395,6.09,'1111122,1111122,1111122' 
COMPS,ioos:station:USF.COMPS:C10:1,2015-01-04T02:05:00Z,27.1690,-82.9260,3.0,4.276,179.997,5.71,'1111122,1111122,1111122' 
COMPS,ioos:station:USF.COMPS:C10:1,2015-01-04T02:35:00Z,27.1690,-82.9260,3.0,3.893,174.5,4.71,'1111122,1111122,1111122' 
COMPS,ioos:station:USF.COMPS:C10:1,2015-01-04T03:05:00Z,27.1690,-82.9260,3.0,3.339,177.57,4.38,'1111122,1111122,1111122' 
COMPS,ioos:station:USF.COMPS:C10:1,2015-01-04T03:35:00Z,27.1690,-82.9260,3.0,5.92,153.927,7.213,'1111122,1111122,1111122' 
COMPS,ioos:station:USF.COMPS:C10:1,2015-01-04T05:05:00Z,27.1690,-82.9260,3.0,4.04,131.412,4.81,'1111122,1111122,1111122' 
COMPS,ioos:station:USF.COMPS:C10:1,2015-01-04T05:35:00Z,27.1690,-82.9260,3.0,3.83,124.369,4.67,'1111122,1111122,1111122' 
COMPS,ioos:station:USF.COMPS:C10:1,2015-01-04T06:05:00Z,27.1690,-82.9260,3.0,4.276,125.257,5.06,'1111122,1111122,1111122' 
COMPS,ioos:station:USF.COMPS:C10:1,2015-01-04T06:35:00Z,27.1690,-82.9260,3.0,4.348,126.162,5.493,'1111122,1111122,1111122' 
COMPS,ioos:station:USF.COMPS:C10:1,2015-01-04T07:05:00Z,27.1690,-82.9260,3.0,4.651,125.531,5.497,'1111122,1111122,1111122' 
COMPS,ioos:station:USF.COMPS:C10:1,2015-01-04T07:35:00Z,27.1690,-82.9260,3.0,5.044,125.295,6.283,'1111122,1111122,1111122' 
COMPS,ioos:station:USF.COMPS:C10:1,2015-01-04T08:05:00Z,27.1690,-82.9260,3.0,4.94,129.42,5.887,'1111122,1111122,1111122' 
COMPS,ioos:station:USF.COMPS:C10:1,2015-01-04T08:35:00Z,27.1690,-82.9260,3.0,4.721,129.379,5.607,'1111122,1111122,1111122' 
COMPS,ioos:station:USF.COMPS:C10:1,2015-01-04T09:05:00Z,27.1690,-82.9260,3.0,4.72,127.423,5.927,'1111122,1111122,1111122' 
COMPS,ioos:station:USF.COMPS:C10:1,2015-01-04T09:35:00Z,27.1690,-82.9260,3.0,4.568,132.514,5.503,'1111122,1111122,1111122' 
COMPS,ioos:station:USF.COMPS:C10:1,2015-01-04T10:05:00Z,27.1690,-82.9260,3.0,5.118,132.578,6.173,'1111122,1111122,1111122' 
COMPS,ioos:station:USF.COMPS:C10:1,2015-01-04T10:35:00Z,27.1690,-82.9260,3.0,5.032,136.712,5.96,'1111122,1111122,1111122' 
COMPS,ioos:station:USF.COMPS:C10:1,2015-01-04T11:05:00Z,27.1690,-82.9260,3.0,4.54,138.005,5.29,'1111122,1111122,1111122' 
COMPS,ioos:station:USF.COMPS:C10:1,2015-01-04T11:35:00Z,27.1690,-82.9260,3.0,4.761,135.931,5.783,'1111122,1111122,1111122' 
COMPS,ioos:station:USF.COMPS:C10:1,2015-01-04T12:05:00Z,27.1690,-82.9260,3.0,4.758,136.785,5.697,'1111122,1111122,1111122' 
COMPS,ioos:station:USF.COMPS:C10:1,2015-01-04T12:35:00Z,27.1690,-82.9260,3.0,4.993,137.6,6.09,'1111122,1111122,1111122' 
COMPS,ioos:station:USF.COMPS:C10:1,2015-01-04T13:05:00Z,27.1690,-82.9260,3.0,4.674,139.031,5.45,'1111122,1111122,1111122' 
COMPS,ioos:station:USF.COMPS:C10:1,2015-01-04T13:35:00Z,27.1690,-82.9260,3.0,4.375,145.358,5.213,'1111122,1111122,1111122' 
COMPS,ioos:station:USF.COMPS:C10:1,2015-01-04T14:05:00Z,27.1690,-82.9260,3.0,4.419,145.594,5.447,'1111122,1111122,1111122' 
COMPS,ioos:station:USF.COMPS:C10:1,2015-01-04T14:35:00Z,27.1690,-82.9260,3.0,4.232,147.202,5.07,'1111122,1111122,1111122' 
COMPS,ioos:station:USF.COMPS:C10:1,2015-01-04T15:05:00Z,27.1690,-82.9260,3.0,4.749,148.197,5.687,'1111122,1111122,1111122' 
COMPS,ioos:station:USF.COMPS:C10:1,2015-01-04T15:35:00Z,27.1690,-82.9260,3.0,4.441,151.295,5.363,'1111122,1111122,1111122' 
COMPS,ioos:station:USF.COMPS:C10:1,2015-01-04T16:05:00Z,27.1690,-82.9260,3.0,4.889,153.973,5.87,'1111122,1111122,1111122' 
COMPS,ioos:station:USF.COMPS:C10:1,2015-01-04T16:35:00Z,27.1690,-82.9260,3.0,4.359,157.099,5.127,'1111122,1111122,1111122' 
COMPS,ioos:station:USF.COMPS:C10:1,2015-01-04T17:05:00Z,27.1690,-82.9260,3.0,4.035,159.1,5.123,'1111122,1111122,1111122' 
COMPS,ioos:station:USF.COMPS:C10:1,2015-01-04T17:35:00Z,27.1690,-82.9260,3.0,4.03,161.801,4.707,'1111122,1111122,1111122' 
COMPS,ioos:station:USF.COMPS:C10:1,2015-01-04T18:05:00Z,27.1690,-82.9260,3.0,4.001,162.16,4.847,'1111122,1111122,1111122' 
COMPS,ioos:station:USF.COMPS:C10:1,2015-01-04T18:35:00Z,27.1690,-82.9260,3.0,3.812,163.613,4.643,'1111122,1111122,1111122' 
COMPS,ioos:station:USF.COMPS:C10:1,2015-01-04T19:05:00Z,27.1690,-82.9260,3.0,3.699,165.104,4.453,'1111122,1111122,1111122' 
COMPS,ioos:station:USF.COMPS:C10:1,2015-01-04T19:35:00Z,27.1690,-82.9260,3.0,4.165,163.538,4.903,'1111122,1111122,1111122' 
COMPS,ioos:station:USF.COMPS:C10:1,2015-01-04T20:05:00Z,27.1690,-82.9260,3.0,3.51,171.817,4.18,'1111122,1111122,1111122' 
COMPS,ioos:station:USF.COMPS:C10:1,2015-01-04T20:35:00Z,27.1690,-82.9260,3.0,2.395,175.075,3.073,'1111122,1111122,1111122' 
COMPS,ioos:station:USF.COMPS:C10:1,2015-01-04T21:05:00Z,27.1690,-82.9260,3.0,1.747,177.055,2.287,'1111122,1111122,1111122' 
COMPS,ioos:station:USF.COMPS:C10:1,2015-01-04T21:35:00Z,27.1690,-82.9260,3.0,2.096,145.33,2.54,'1111122,1111122,1111122' 
COMPS,ioos:station:USF.COMPS:C10:1,2015-01-04T22:05:00Z,27.1690,-82.9260,3.0,1.059,152.755,2.043,'1111122,1111122,1111122' 
COMPS,ioos:station:USF.COMPS:C10:1,2015-01-04T22:35:00Z,27.1690,-82.9260,3.0,0.552,50.554,0.99,'1111122,1111122,1111122' 
COMPS,ioos:station:USF.COMPS:C10:1,2015-01-04T23:05:00Z,27.1690,-82.9260,3.0,0.997,87.243,1.393,'1111122,1111122,1111122' 
COMPS,ioos:station:USF.COMPS:C10:1,2015-01-04T23:35:00Z,27.1690,-82.9260,3.0,2.202,125.908,2.637,'1111122,1111122,1111122' 
COMPS,ioos:station:USF.COMPS:C10:1,2015-01-05T00:05:00Z,27.1690,-82.9260,3.0,2.186,130.633,3.323,'1111122,1111122,1111122' 
COMPS,ioos:station:USF.COMPS:C10:1,2015-01-05T00:35:00Z,27.1690,-82.9260,3.0,1.35,132.792,1.857,'1111122,1111122,1111122' 
COMPS,ioos:station:USF.COMPS:C10:1,2015-01-05T01:05:00Z,27.1690,-82.9260,3.0,0.733,16.084,1.183,'1111122,1111122,1111122' 
COMPS,ioos:station:USF.COMPS:C10:1,2015-01-05T01:35:00Z,27.1690,-82.9260,3.0,0.676,56.561,1.08,'1111122,1111122,1111122' 
COMPS,ioos:station:USF.COMPS:C10:1,2015-01-05T02:05:00Z,27.1690,-82.9260,3.0,0.996,100.193,1.313,'1111122,1111122,1111122' 
COMPS,ioos:station:USF.COMPS:C10:1,2015-01-05T02:35:00Z,27.1690,-82.9260,3.0,2.092,24.651,4.933,'1111122,1111122,1111122' 
COMPS,ioos:station:USF.COMPS:C10:1,2015-01-05T03:05:00Z,27.1690,-82.9260,3.0,0.934,81.314,1.517,'1111122,1111122,1111122' 
COMPS,ioos:station:USF.COMPS:C10:1,2015-01-05T03:35:00Z,27.1690,-82.9260,3.0,2.472,132.394,2.927,'1111122,1111122,1111122' 
COMPS,ioos:station:USF.COMPS:C10:1,2015-01-05T05:05:00Z,27.1690,-82.9260,3.0,3.155,160.328,3.853,'1111122,1111122,1111122' 
COMPS,ioos:station:USF.COMPS:C10:1,2015-01-05T05:35:00Z,27.1690,-82.9260,3.0,3.937,155.475,5.147,'1111122,1111122,1111122' 
COMPS,ioos:station:USF.COMPS:C10:1,2015-01-05T06:05:00Z,27.1690,-82.9260,3.0,6.156,156.99,7.607,'1111122,1111122,1111122' 
COMPS,ioos:station:USF.COMPS:C10:1,2015-01-05T06:35:00Z,27.1690,-82.9260,3.0,6.075,172.803,7.14,'1111122,1111122,1111122' 
COMPS,ioos:station:USF.COMPS:C10:1,2015-01-05T07:05:00Z,27.1690,-82.9260,3.0,2.185,212.04,4.403,'1111122,1111122,1111122' 
COMPS,ioos:station:USF.COMPS:C10:1,2015-01-05T07:35:00Z,27.1690,-82.9260,3.0,2.803,203.352,3.79,'1111122,1111122,1111122' 